| time (UTC) | temp F | wind direction | speed MPH | gust MPH | rain 1hr in | rain 24hr in | rain mn in | humidity % | barometer mb |
| 20260505041503 | 49 | 39 | 0.0 | 2.0 | 0.33 | 1.21 | 1.21 | 95 | 1017.7 |
| 20260505034618 | 49 | 74 | 0.0 | 0.0 | 0.31 | 1.03 | 1.03 | 95 | 1017.4 |
| 20260505033107 | 49 | 81 | 0.0 | 0.0 | 0.26 | 0.93 | 0.93 | 95 | 1017.7 |
| 20260505031600 | 49 | 81 | 0.0 | 0.0 | 0.27 | 0.88 | 0.88 | 94 | 1017.6 |
| 20260505024600 | 49 | 29 | 1.0 | 3.0 | 0.16 | 0.72 | 0.72 | 94 | 1018.0 |
| 20260505023103 | 49 | 35 | 0.0 | 3.0 | 0.14 | 0.67 | 0.67 | 94 | 1017.4 |
| 20260505021600 | 49 | 39 | 1.0 | 3.0 | 0.09 | 0.61 | 0.61 | 94 | 1017.1 |
| 20260505021502 | 49 | 59 | 0.0 | 3.0 | 0.09 | 0.61 | 0.61 | 94 | 1017.1 |
| 20260505020002 | 50 | 66 | 1.0 | 4.0 | 0.10 | 0.59 | 0.59 | 94 | 1016.2 |
| 20260505014601 | 50 | 52 | 1.0 | 4.0 | 0.08 | 0.56 | 0.56 | 94 | 1016.2 |
| 20260505013001 | 50 | 48 | 0.0 | 3.0 | 0.10 | 0.53 | 0.53 | 94 | 1016.8 |
| 20260505011612 | 50 | 50 | 1.0 | 4.0 | 0.13 | 0.52 | 0.52 | 94 | 1016.8 |
| 20260505010008 | 50 | 104 | 0.0 | 2.0 | 0.12 | 0.49 | 0.49 | 93 | 1016.6 |
| 20260505004501 | 50 | 352 | 1.0 | 3.0 | 0.11 | 0.47 | 0.47 | 94 | 1016.6 |
| 20260505003101 | 50 | 75 | 0.0 | 3.0 | 0.08 | 0.43 | 0.43 | 94 | 1016.9 |
| 20260505001502 | 50 | 56 | 1.0 | 2.0 | 0.06 | 0.39 | 0.39 | 94 | 1017.3 |
| 20260505000110 | 51 | 58 | 0.0 | 4.0 | 0.10 | 0.37 | 0.37 | 93 | 1016.8 |
| 20260505000002 | 51 | 89 | 0.0 | 4.0 | 0.10 | 0.37 | 0.37 | 93 | 1016.7 |
| 20260504234501 | 51 | 46 | 1.0 | 6.0 | 0.10 | 0.36 | 0.36 | 94 | 1017.2 |
| 20260504233113 | 50 | 35 | 0.0 | 3.0 | 0.13 | 0.35 | 0.35 | 93 | 1017.0 |
| 20260504233002 | 50 | 66 | 0.0 | 3.0 | 0.14 | 0.35 | 0.35 | 93 | 1016.9 |
| 20260504231501 | 50 | 196 | 0.0 | 2.0 | 0.14 | 0.32 | 0.32 | 93 | 1016.5 |
| 20260504230002 | 50 | 44 | 1.0 | 4.0 | 0.12 | 0.27 | 0.27 | 92 | 1017.7 |
| 20260504224600 | 51 | 79 | 0.0 | 1.0 | 0.12 | 0.26 | 0.26 | 93 | 1017.0 |
| 20260504223100 | 51 | 133 | 0.0 | 0.0 | 0.11 | 0.22 | 0.22 | 92 | 1017.1 |
| 20260504221559 | 51 | 115 | 0.0 | 1.0 | 0.11 | 0.18 | 0.18 | 92 | 1017.4 |
| 20260504214608 | 51 | 125 | 0.0 | 2.0 | 0.10 | 0.14 | 0.14 | 91 | 1017.3 |
| 20260504213100 | 52 | 72 | 0.0 | 1.0 | 0.08 | 0.11 | 0.11 | 91 | 1017.3 |
| 20260504211600 | 52 | 60 | 0.0 | 3.0 | 0.06 | 0.07 | 0.07 | 91 | 1017.7 |
| 20260504210100 | 52 | 168 | 0.0 | 1.0 | 0.04 | 0.05 | 0.05 | 89 | 1017.5 |
| 20260504204617 | 52 | 163 | 0.0 | 1.0 | 0.04 | 0.04 | 0.04 | 89 | 1017.4 |
| 20260504203105 | 52 | 31 | 0.0 | 1.0 | 0.03 | 0.03 | 0.03 | 86 | 1017.3 |
| 20260504201600 | 53 | 25 | 0.0 | 2.0 | 0.01 | 0.01 | 0.01 | 84 | 1017.2 |
| 20260504200104 | 53 | 37 | 0.0 | 2.0 | 0.01 | 0.01 | 0.01 | 84 | 1017.3 |
| 20260504200002 | 53 | 37 | 0.0 | 2.0 | 0.01 | 0.01 | 0.01 | 83 | 1017.3 |
| 20260504194501 | 53 | 32 | 0.0 | 2.0 | 0.00 | 0.00 | 0.00 | 80 | 1017.2 |
| 20260504193002 | 53 | 10 | 0.0 | 1.0 | 0.00 | 0.00 | 0.00 | 80 | 1017.3 |
| 20260504191501 | 53 | 48 | 0.0 | 1.0 | 0.00 | 0.00 | 0.00 | 81 | 1017.7 |
| 20260504190002 | 54 | 114 | 0.0 | 2.0 | 0.00 | 0.00 | 0.00 | 81 | 1017.7 |
| 20260504184559 | 54 | 188 | 0.0 | 3.0 | 0.00 | 0.00 | 0.00 | 83 | 1017.5 |
| 20260504183100 | 55 | 102 | 1.0 | 3.0 | 0.00 | 0.00 | 0.00 | 81 | 1017.4 |
| 20260504181603 | 55 | 166 | 1.0 | 3.0 | 0.00 | 0.00 | 0.00 | 78 | 1017.3 |
| 20260504180100 | 54 | 121 | 0.0 | 4.0 | 0.00 | 0.00 | 0.00 | 75 | 1017.2 |
| 20260504174600 | 55 | 126 | 0.0 | 3.0 | 0.00 | 0.00 | 0.00 | 76 | 1017.1 |
| 20260504173103 | 55 | 41 | 0.0 | 3.0 | 0.00 | 0.00 | 0.00 | 76 | 1017.1 |
| 20260504171559 | 54 | 19 | 0.0 | 3.0 | 0.00 | 0.00 | 0.00 | 77 | 1016.9 |
| 20260504160117 | 53 | 73 | 1.0 | 4.0 | 0.00 | 0.00 | 0.00 | 79 | 1016.8 |
| 20260504120106 | 50 | 6 | 0.0 | 2.0 | 0.00 | 0.00 | 0.00 | 86 | 1015.8 |
| 20260504100104 | 50 | 40 | 0.0 | 0.0 | 0.00 | 0.00 | 0.00 | 86 | 1015.7 |
| 20260504090123 | 51 | 33 | 0.0 | 1.0 | 0.00 | 0.00 | 0.00 | 85 | 1015.7 |
| 20260504081600 | 51 | 38 | 0.0 | 1.0 | 0.00 | 0.00 | 0.00 | 84 | 1015.9 |